Miscellaneous Local Product
Issued by NWS Hastings, NE

Home | Current Version | Previous Version | Graphics & Text | Print | Product List | Glossary On
Versions: 1 2 3 4 5 6 7 8 9 10 11 12 13 14 15 16 17 18 19 20 21 22 23 24 25 26 27 28 29 30 31 32 33 34 35 36 37 38 39 40 41 42 43 44 45 46 47 48 49 50
000
AXUS43 KGID 010002
MISGRI

GID CWA HOURLY WEATHER ROUNDUP
NATIONAL WEATHER SERVICE HASTINGS NE
700 PM CDT FRI JUL 31 2015

NOTE: "FAIR" INDICATES FEW OR NO CLOUDS BELOW 12,000 FEET WITH NO
SIGNIFICANT WEATHER AND/OR OBSTRUCTIONS TO VISIBILITY.

...SOUTH CENTRAL NEBRASKA...

CITY           SKY/WX    TMP DP  RH WIND       PRES   REMARKS
GRAND ISLAND   TSTM      70  62  76 N10G31    30.13S
HASTINGS       CLOUDY    78  63  59 NE18G30   30.11R
KEARNEY        MOSUNNY   84  63  48 NE32G39   30.10R
ORD            PTSUNNY   73  65  75 SE10      30.10R
YORK           PTSUNNY   72  63  73 E8        30.10F
AURORA         TSTM      66  63  89 E20G26    30.13F
LEXINGTON      MOSUNNY   92  61  34 S5        30.06F HX  92
HOLDREGE       SUNNY     91  59  33 S6        30.07F HX  90
HEBRON         SUNNY     87  61  40 CALM      30.06S

...NEBRASKA PANHANDLE...

CITY           SKY/WX    TMP DP  RH WIND       PRES   REMARKS
CHADRON        SUNNY     91  52  26 S10       30.09F
ALLIANCE       MOSUNNY   85  53  33 SE8       30.15F
SCOTTSBLUFF    SUNNY     89  46  22 CALM      30.14F
SIDNEY         MOSUNNY   87  45  23 SE8       30.17F

...WESTERN AND NORTH CENTRAL NEBRASKA...

CITY           SKY/WX    TMP DP  RH WIND       PRES   REMARKS
VALENTINE      SUNNY     93  48  21 NE12      30.07F
AINSWORTH      SUNNY     89  62  40 E6        30.09S
ONEILL         SUNNY     88  63  43 E12       30.07F
BROKEN BOW     SUNNY     83  62  49 E12G29    30.09R
IMPERIAL       SUNNY     93  41  16 VRB3      30.10F
NORTH PLATTE   MOSUNNY   89  60  37 SE3       30.08F
MCCOOK         SUNNY     94  55  26 S7        30.06F HX  92

...EASTERN NEBRASKA...

CITY           SKY/WX    TMP DP  RH WIND       PRES   REMARKS
NORFOLK        SUNNY     79  62  56 SW9       30.07S
SO SIOUX CITY  SUNNY     84  70  62 E10       30.03F
TEKAMAH        PTSUNNY   79  64  60 SW5       30.01F
COLUMBUS       PTSUNNY   77  61  57 CALM      30.07F
ALBION         PTSUNNY   72  63  72 W5        30.09F
OMAHA EPPLEY   CLOUDY    85  77  77 N5        30.02F HX  95
OFFUTT AFB     CLOUDY    83  74  73 E7        30.02F HX  90
MILLARD        CLOUDY    87  74  63 N3        30.03F HX  95
LINCOLN        CLOUDY    85  66  53 NE9       30.02F
NEBRASKA CITY  CLOUDY    83  73  72 S5        30.04F
BEATRICE       MOSUNNY   89  69  50 W3        30.05F HX  93
FALLS CITY     MOSUNNY   88  74  63 CALM      30.03S HX  96

...NORTHERN KANSAS...

CITY           SKY/WX    TMP DP  RH WIND       PRES   REMARKS
GOODLAND       MOSUNNY   87  57  35 SW7       30.14F
HILL CITY      SUNNY     92  60  34 S10       30.07F HX  91
NORTON         PTCLDY    90  52  27 SE8       30.06F
PHILLIPSBURG   SUNNY     93  61  33 S6        30.05F HAZE    HX  93
SMITH CENTER   SUNNY     91  59  33 S9        30.05F HX  90
HAYS           SUNNY     91  57  31 S7        30.07F HX  90
RUSSELL        SUNNY     91  61  36 S8        30.06S HX  91
CONCORDIA      SUNNY     90  66  45 SE8       30.05S HX  92
SALINA         SUNNY     91  68  46 S8        30.05F HX  95
TOPEKA         SUNNY     90  67  46 E3        30.05S HX  93



USA.gov is the U.S. government's official web portal to all federal, state and local government web resources and services.